STARLINK-32810, 63037

Orbit data source: Space-Track

STARLINK-32810, 63037 is a payload satellite owned by SpaceX/Seattle (US) in LEO that was launched on Tue, 18 Feb 2025 UTC via an FALCON 9 launch vehicle from the Air Force Eastern Test Range (AFETR). Payload-class satellites include a variety of spacecraft equipped with specific instruments for various scientific and technological missions. These include communications satellites like Starlink; space stations such as the ISS; scientific satellites like the Hubble; Earth observation satellites from companies like Planet Labs, Umbra, and HawkEye 360; GPS; miniature CubeSats for education and research; and military/defense satellites.

Loading next visibility...
Identifier
63037, 2025-034J
Orbit
LEO
Country
Flag of USUS
Related business
Manufacturer
SpaceX/Seattle
Mission
Operational Commercial Communications
Bus & Motor
STARLINK V2M, Unknown motor
Mass
730 kg wet, ~700 kg dry
Launch date (UTC)
2025-02-18 (1 year ago)
Launch vehicle
FALCON 9
Launch site
Air Force Eastern Test Range (AFETR)
Object type
Payload
Rocket body
Debris
Shape & HBR
Box + 2 Pan, 17.7 m
Radar Cross Section
33.884 m², Large (>1 m²)

Expand to show TLE details & history
Last TLE update: 15 hours ago

TLE from 15 hours ago
0 STARLINK-32810
1 63037U 25034J   26171.22049613  .00014905  00000-0  45125-3 0  9996
2 63037  53.1591 141.2536 0001400  96.1888 263.9274 15.34410342 74799
Epoch: 2026-06-20T05:17Z
TLE epoch observation values (Epoch: 2026-06-20T05:17:30.865Z)
Latitude
-0.00004°
Longitude
153.43672°
Altitude
463.675 km
Speed
7.636 km/s
True Right ascension
09h 25m 00s
True Declination
0° 00' 00"
Sunlit
Object was in daylight at epoch
Visualization orbit readout
Latitude
Unknown
Longitude
Unknown
Altitude
Unknown
Speed
Unknown
Apparent Right ascension
Unknown
Apparent Declination
Unknown
Sunlit
N/A
Visualization observer readout
Local Sidereal Time
07:16:50
Azimuth
Unknown
Elevation
Unknown
Doppler factor
Unknown
Orbital elements
Apogee altitude
463.887 km
Perigee altitude
461.972 km
Semi-major axis
6,841.067 km
Eccentricity
0.00014
Inclination
53.1591°
RAAN
141.2536°
Arg. of periapsis
96.1888°
True anomaly
263.91145°
Mean anomaly
263.9274°
Eccentric anomaly
263.91942°
Mean motion
3.83581 °/min
Orbital period
93.85 mins
BSTAR
0.00045125
Loading maneuver chart data...
Computing Atmospheric mass density...
Loading historical data...
Loading historical data...
Loading historical data...
Loading historical data...
Loading historical data...
Loading historical data...
Loading historical data...

Documentation

Showing up to 5 results
|